Weather History for KPSC - February, 2014

Change the Weather History Date:

Sunday, February 2, 2014

  Actual Average Record
Temperature  
Mean Temperature 32 °F 37 °F  
Max Temperature 35 °F 45 °F 62 °F (2005)
Min Temperature 28 °F 29 °F -14 °F (1996)
Degree Days  
Heating Degree Days 33 28  
Month to date heating degree days 68 56  
Since 1 July heating degree days 3478 3207  
Cooling Degree Days 0 0  
Month to date cooling degree days 0 0  
Year to date cooling degree days 0 0  
Moisture  
Dew Point 24 °F    
Average Humidity 73    
Maximum Humidity 85    
Minimum Humidity 61    
Precipitation  
Precipitation T in 0.04 in 0.49 in (1961)
Month to date precipitation T 0.07  
Year to date precipitation 0.36 1.29  
Snow  
Snow 0.00 in - - ()
Snow Depth 0.00 in    
Sea Level Pressure  
Sea Level Pressure 30.09 in    
Wind  
Wind Speed 6 mph (NW)    
Max Wind Speed 14 mph    
Max Gust Speed 16 mph    
Visibility 10 miles    
Events Snow    
T = Trace of Precipitation, MM = Missing Value Source: NWS Daily Summary

Daily Weather History Graph

Daily Weather History Graph

Search for Another Location

Airport or City:

Trip Planner

Search our weather history database for the weather conditions in past years. The results will help you decide how hot, cold, wet, or windy it might be!

Date:

Astronomy

Feb. 02, 2014 Rise Set
Actual Time 7:18 AM PST 5:02 PM PST
Civil Twilight 6:46 AM PST 5:34 PM PST
Nautical Twilight 6:10 AM PST 6:10 PM PST
Astronomical Twilight 5:35 AM PST 6:46 PM PST
Moon 8:33 AM PST 9:08 PM PST
Length of Visible Light 10h 48m
Length of Day
9h 44m
Waxing Crescent, 12% of the Moon is Illuminated
Feb 2
Waxing Crescent
Feb 6
First Quarter
Feb 14
Full
Feb 22
Last Quarter
Mar 1
New

Hourly Weather History & Observations

Time (PST) Temp. Windchill Dew Point Humidity Pressure Visibility Wind Dir Wind Speed Gust Speed Precip Events Conditions
12:53 AM 28.0 °F 22.8 °F 25.0 °F 88% 30.16 in 10.0 mi WNW 4.6 mph - N/A   Overcast
1:53 AM 30.0 °F 24.1 °F 25.0 °F 82% 30.16 in 10.0 mi WNW 5.8 mph - N/A   Overcast
2:53 AM 30.0 °F 22.4 °F 25.0 °F 82% 30.16 in 10.0 mi NW 8.1 mph - N/A   Overcast
3:53 AM 30.0 °F 20.0 °F 24.1 °F 79% 30.14 in 10.0 mi NNW 12.7 mph - N/A   Overcast
4:53 AM 28.9 °F 19.8 °F 25.0 °F 85% 30.14 in 10.0 mi NW 10.4 mph - N/A   Overcast
5:53 AM 28.9 °F 19.2 °F 21.0 °F 72% 30.14 in 10.0 mi NNW 11.5 mph - N/A   Overcast
6:53 AM 28.0 °F 19.3 °F 21.0 °F 75% 30.13 in 10.0 mi NW 9.2 mph - N/A   Overcast
7:53 AM 28.0 °F 18.6 °F 21.9 °F 78% 30.14 in 10.0 mi NW 10.4 mph - N/A   Overcast
8:53 AM 28.9 °F 21.1 °F 21.0 °F 72% 30.14 in 10.0 mi NW 8.1 mph - N/A   Overcast
9:53 AM 30.0 °F 23.2 °F 21.0 °F 69% 30.13 in 10.0 mi WNW 6.9 mph - N/A   Overcast
10:53 AM 32.0 °F 26.4 °F 21.0 °F 64% 30.12 in 10.0 mi WNW 5.8 mph - N/A   Overcast
11:53 AM 33.1 °F 26.9 °F 21.9 °F 64% 30.09 in 10.0 mi WNW 6.9 mph - N/A   Overcast
12:53 PM 34.0 °F 28.8 °F 21.9 °F 61% 30.06 in 10.0 mi NNW 5.8 mph - N/A   Overcast
1:53 PM 34.0 °F 29.8 °F 23.0 °F 64% 30.04 in 10.0 mi Variable 4.6 mph - N/A   Overcast
2:53 PM 34.0 °F 28.8 °F 23.0 °F 64% 30.04 in 10.0 mi North 5.8 mph - N/A   Overcast
3:53 PM 34.0 °F 31.0 °F 23.0 °F 64% 30.04 in 10.0 mi North 3.5 mph - N/A   Overcast
4:53 PM 33.1 °F - 24.1 °F 70% 30.04 in 10.0 mi Calm Calm - N/A   Overcast
5:53 PM 32.0 °F 28.7 °F 25.0 °F 75% 30.03 in 10.0 mi NNW 3.5 mph - 0.00 in   Overcast
6:53 PM 32.0 °F - 25.0 °F 75% 30.02 in 10.0 mi Calm Calm - N/A   Overcast
7:53 PM 32.0 °F - 26.1 °F 79% 30.01 in 10.0 mi Calm Calm - N/A   Overcast
8:53 PM 30.9 °F 26.2 °F 26.1 °F 82% 30.02 in 10.0 mi NNW 4.6 mph - N/A   Overcast
9:53 PM 30.9 °F - 27.0 °F 85% 30.03 in 10.0 mi Calm Calm - 0.00 in Snow Light Snow
10:53 PM 30.9 °F - 27.0 °F 85% 30.03 in 10.0 mi Calm Calm - 0.00 in   Overcast
11:53 PM 32.0 °F - 26.1 °F 79% 30.04 in 10.0 mi Calm Calm - N/A   Overcast